This is the latest recevied weather packets stored in our database for station/object KJ6APE. If no packets are shown the sender has not sent any weather packets the latest 1 day(s).
| Time | Temp. | Humidity | Pressure | Rain* | Wind** | Luminosity | Snow |
|---|---|---|---|---|---|---|---|
| 1778077550 | 13.33° C | 82% | 1020.8 hPa | 0 mm | - | 71 W/m² | - |
| 1778077248 | 13.33° C | 82% | 1020.5 hPa | 0 mm | - | 66 W/m² | - |
| 1778076341 | 12.78° C | 85% | 1020.8 hPa | 0 mm | - | 60 W/m² | - |
| 1778075431 | 12.22° C | 87% | 1020.3 hPa | 0 mm | - | 42 W/m² | - |
| 1778074521 | 12.22° C | 88% | 1020.3 hPa | 0 mm | - | 25 W/m² | - |
| 1778073915 | 12.22° C | 87% | 1020.2 hPa | 0 mm | - | 15 W/m² | - |
| 1778073309 | 12.22° C | 86% | 1020.1 hPa | 0 mm | - | 8 W/m² | - |
| 1778071493 | 12.78° C | 84% | 1020 hPa | 0 mm | - | 0 W/m² | - |
| 1778071191 | 12.78° C | 84% | 1020.1 hPa | 0 mm | - | 0 W/m² | - |
| 1778070586 | 12.78° C | 84% | 1020.1 hPa | 0 mm | - | 0 W/m² | - |
| 1778070283 | 12.78° C | 83% | 1019.8 hPa | 0 mm | - | 0 W/m² | - |
| 1778069981 | 12.78° C | 83% | 1019.8 hPa | 0 mm | - | 0 W/m² | - |
| 1778068166 | 12.78° C | 84% | 1019.8 hPa | 0 mm | - | 0 W/m² | - |
| 1778067863 | 12.78° C | 84% | 1019.8 hPa | 0 mm | - | 0 W/m² | - |
| 1778066653 | 12.78° C | 84% | 1019.6 hPa | 0 mm | - | 0 W/m² | - |
| 1778066048 | 12.78° C | 84% | 1019.6 hPa | 0 mm | - | 0 W/m² | - |
| 1778065442 | 12.78° C | 84% | 1019.5 hPa | 0 mm | - | 0 W/m² | - |
| 1778064835 | 12.78° C | 84% | 1019.3 hPa | 0 mm | - | 0 W/m² | - |
| 1778064230 | 12.78° C | 83% | 1019.4 hPa | 0 mm | - | 0 W/m² | - |
| 1778063928 | 12.78° C | 83% | 1019.6 hPa | 0 mm | - | 0 W/m² | - |
| 1778063625 | 12.78° C | 83% | 1019.4 hPa | 0 mm | - | 0 W/m² | - |
| 1778063322 | 12.78° C | 83% | 1019.4 hPa | 0 mm | - | 0 W/m² | - |
| 1778063020 | 12.78° C | 83% | 1019.3 hPa | 0 mm | - | 0 W/m² | - |
| 1778062717 | 12.78° C | 83% | 1019.3 hPa | 0 mm | - | 0 W/m² | - |
| 1778062413 | 12.78° C | 83% | 1019.3 hPa | 0 mm | - | 0 W/m² | - |
* Rain latest hour (hover to see other rain measurements)
** Current wind speed in m/s (hover to see current wind gust speed)